Regional Weather Roundup
Issued by NWS

Home | Current Version | Previous Version | Graphics & Text | Print | Product List | Glossary On
Versions: 1 2 3 4 5 6 7 8 9 10 11 12 13 14 15 16 17 18 19 20 21 22 23 24 25 26 27 28 29 30 31 32 33 34 35 36 37 38 39 40 41 42 43 44 45 46 47 48 49 50
543
ASUS43 KMKX 311711
RWRWI

WISCONSIN REGIONAL WEATHER ROUNDUP
NATIONAL WEATHER SERVICE MILWAUKEE/SULLIVAN WI
1200 PM CDT TUE MAY 31 2016

NOTE: "FAIR" INDICATES FEW OR NO CLOUDS BELOW 12,000 FEET WITH NO
SIGNIFICANT WEATHER AND/OR OBSTRUCTIONS TO VISIBILITY.

WIZ001-002-006>008-014>016-023>028-311800-
NORTHWEST WISCONSIN

CITY           SKY/WX    TMP DP  RH WIND       PRES   REMARKS
SUPERIOR ARPT  CLOUDY    42  41  97 NE18G26   29.95F
ASHLAND        LGT RAIN  53  49  86 N6        29.96F
HAYWARD        LGT RAIN  64  60  87 SE8       29.91F
SIREN          CLOUDY    67  59  75 S12       29.88F
CUMBERLAND     CLOUDY    64  61  88 SE8       29.91S
RICE LAKE      DRIZZLE   66  62  85 SE3       29.92S
CHETEK         LGT RAIN  68  61  78 SE5       29.91S
LADYSMITH      PTSUNNY   72  59  62 SE12      29.95F
EAU CLAIRE     CLOUDY    75  60  59 SE13      29.89F
MENOMONIE      CLOUDY    70  69  96 S5        29.89F
NEW RICHMOND   LGT RAIN  66  60  79 S10       29.90S
OSCEOLA        LGT RAIN  67  61  80 S14       29.92R
$$

WIZ003>005-009-010-017-018-311800-
NORTH CENTRAL WISCONSIN

CITY           SKY/WX    TMP DP  RH WIND       PRES   REMARKS
MANITOWISH WTR NOT AVBL
ARBOR VITAE    PTSUNNY   65  51  62 SE10G18   30.00F
WOODRUFF       PTSUNNY   65  51  62 SE10G18   30.00F
RHINELANDER    CLOUDY    65  51  60 E14       30.02F
EAGLE RIVER      N/A     64  47  54 SE10      30.02F
LAND O LAKES   CLOUDY    62  47  58 SE14      30.04F
PHILLIPS       CLOUDY    66  57  73 SE8       29.97F
TOMAHAWK       SUNNY     67  54  64 SE3       30.00F
MEDFORD        MOSUNNY   69  57  66 SE14G20   29.97F
MERRILL        SUNNY     69  55  60 SE8       30.00F
$$

WIZ029-030-035-036-043>047-311800-
CENTRAL WISCONSIN

CITY           SKY/WX    TMP DP  RH WIND       PRES   REMARKS
WAUSAU         SUNNY     71  54  54 E14       29.98F
MOSINEE        SUNNY     70  57  64 E13       30.00F
MARSHFIELD     SUNNY     75  60  59 SE14      29.95F
STEVENS POINT  SUNNY     69  56  62 E13G23    29.99F
WAUPACA        MOSUNNY   74  57  55 E8        30.01F
WAUTOMA        SUNNY    N/A N/A N/A E10       29.98F
WISC RAPIDS    SUNNY     77  56  48 S12G22    29.97F
CAMP DOUGLAS   MOSUNNY   75  64  69 SE12G20   29.95S
$$

WIZ011>013-019>022-031-037>040-048>050-311800-
NORTHEAST WISCONSIN

CITY           SKY/WX    TMP DP  RH WIND       PRES   REMARKS
ANTIGO         SUNNY     65  54  67 SE10G16   30.04S
SHAWANO        MOSUNNY   69  54  60 E12       30.04F
OCONTO         SUNNY     62  49  63 E8        30.07S
STURGEON BAY   NOT AVBL
GREEN BAY      SUNNY     66  54  65 NE16      30.05S
MANITOWOC      SUNNY     63  52  67 NE7       30.06S
APPLETON       MOSUNNY   70  52  52 E9G16     30.01F
CLINTONVILLE   SUNNY     68  52  56 E12       30.02F
OSHKOSH        MOSUNNY   70  58  65 E12       30.00F
$$

WIZ032>034-041-042-053>061-311800-
SOUTHWEST WISCONSIN

CITY           SKY/WX    TMP DP  RH WIND       PRES   REMARKS
LA CROSSE      MOSUNNY   78  62  57 S10       29.91S HX  80
SPARTA         MOSUNNY   78  62  59 SE12      29.93F
VIROQUA        MOSUNNY   75  62  64 S12       29.96R
BOSCOBEL       NOT AVBL
PRAIRIE DU CHI PTSUNNY   78  62  57 S3        29.92F
PLATTEVILLE    CLOUDY    68  64  87 E13       29.97F
$$

WIZ056-057-062-063-064-067-068-311800-
SOUTH CENTRAL WISCONSIN

CITY           SKY/WX    TMP DP  RH WIND       PRES   REMARKS
REEDSBURG      LGT RAIN  75  59  57 W18       29.97R
BARABOO/DELLS  PTSUNNY   79  52  39 SE12      29.95F
LONE ROCK      LGT RAIN  67  62  84 S5        29.98R
MINERAL POINT  LGT RAIN  64  63  94 SE8       29.99F
MADISON        LGT RAIN  76  50  40 S10       29.99R
MIDDLETON      CLOUDY    70  60  69 SE7       29.98R
WATERTOWN      CLOUDY    77  55  47 E13G20    29.98S
MONROE         RAIN      63  59  88 W3        30.00R
JANESVILLE     CLOUDY    72  57  60 SW14G22   30.00R
$$

WIZ051-052-058>065-066-070>072-311800-
SOUTHEAST WISCONSIN

CITY           SKY/WX    TMP DP  RH WIND       PRES   REMARKS
MILWAUKEE      PTSUNNY   67  55  65 E8        30.02F
WAUKESHA       MOSUNNY   72  52  49 E9        30.02F
MILWAUKEE/TIMM SUNNY     70  50  49 E9        30.03S
RACINE         SUNNY     72  52  49 E7        30.04S
BURLINGTON     MOSUNNY   76  48  37 SE13      30.00S
KENOSHA        MOSUNNY   72  55  55 E10       30.02R
FOND DU LAC    MOSUNNY   74  55  51 SE12      30.00F
SHEBOYGAN      SUNNY     64  54  69 NE7       30.04F
WEST BEND      MOSUNNY   72  54  53 SE10      30.02S
JUNEAU         CLOUDY    73  54  50 E14       30.00S
$$

LSZ147-162-311800-
LAKE SUPERIOR

STATION/POSITION TIME  TEMP    WIND        PRES    WAVE
                       AIR SEA DIR/SP/G            HT/PER
                 (UTC) (F)     (DEG/KT/KT) (MB)    (FT/S)
W MID LAKE BUOY  1650   41 38   70/ 19/ 21 1017.1F   4/ 5
DEVILS ISLAND    1700   43      70/ 21/ 24 1015.9F
SAXON HARBOR     1600   57      70/  8/  8 1014.6
$$

LMZ867-665-643>646-311800-
LAKE MICHIGAN

STATION/POSITION TIME  TEMP    WIND        PRES    WAVE
                       AIR SEA DIR/SP/G            HT/PER
                 (UTC) (F)     (DEG/KT/KT) (MB)    (FT/S)
CHAMBERS ISLAND  1600   54      20/ 11/ 13 1019.3R
N MID LAKE BUOY  1650   48 47   30/  8/  8 1019.1F   1/ 4
NORTHPORT PIER   1600   51      80/  9/ 12 1019.3S
SISTER BAY       1605   60     110/  6/ 10   N/A
ALGOMA LAKESHORE 1617           60/ 14/ 18   N/A
KEWAUNEE LAKESHO 1600   51      20/ 11/ 17 1017.4R
SHEBOYGAN LAKESH 1700   49     350/ 13/ 14 1017.9F
PORT WASHINGTON  1600   56      40/  5/  8 1017.9
S MID LAKE BUOY  1650   57 54   70/  8/  8 1015.9F   0
KENOSHA   LAKESH 1700   57      10/  6/  6 1016.6R
$$

TC  - TEMPERATURE IN CELSIUS
VSB - VISIBILITY IN STATUTE MILES
WCI - WIND CHILL INDEX
HX  - HEAT INDEX





USA.gov is the U.S. government's official web portal to all federal, state and local government web resources and services.